Weather History for KLAS - May, 2013

Change the Weather History Date:

Friday, May 10, 2013

  Actual Average Record
Temperature  
Mean Temperature 76 °F 76 °F  
Max Temperature 89 °F 87 °F 102 °F (1940)
Min Temperature 62 °F 64 °F 41 °F (1948)
Degree Days  
Heating Degree Days 0 0  
Month to date heating degree days 0 4  
Since 1 July heating degree days 1757 1947  
Cooling Degree Days 11 11  
Month to date cooling degree days 64 94  
Year to date cooling degree days 344 254  
Growing Degree Days 26 (Base 50)    
Moisture  
Dew Point 37 °F    
Average Humidity 29    
Maximum Humidity 46    
Minimum Humidity 11    
Precipitation  
Precipitation 0.00 in 0.00 in 0.09 in (1947)
Month to date precipitation 0.00 0.04  
Year to date precipitation 0.61 1.93  
Snow  
Snow 0.00 in 0.00 in 0.00 in ()
Month to date snowfall 0.0 0.0  
Since 1 July snowfall T 0.3  
Snow Depth 0.00 in    
Sea Level Pressure  
Sea Level Pressure 29.97 in    
Wind  
Wind Speed 7 mph (SSE)    
Max Wind Speed 20 mph    
Max Gust Speed 25 mph    
Visibility 10 miles    
Events      
T = Trace of Precipitation, MM = Missing Value Source: NWS Daily Summary

Daily Weather History Graph

Daily Weather History Graph

Search for Another Location

Airport or City:

Trip Planner

Search our weather history database for the weather conditions in past years. The results will help you decide how hot, cold, wet, or windy it might be!

Date:

Astronomy

May. 10, 2013 Rise Set
Actual Time 5:38 AM PDT 7:35 PM PDT
Civil Twilight 5:10 AM PDT 8:04 PM PDT
Nautical Twilight 4:36 AM PDT 8:38 PM PDT
Astronomical Twilight 3:59 AM PDT 9:15 PM PDT
Moon 6:06 AM PDT (5/10) 8:28 PM PDT (5/10)
Length of Visible Light 14h 53m
Length of Day
13h 57m
New Moon, 1% of the Moon is Illuminated
May 10
New Moon
May 17
First Quarter
May 24
Full
May 31
Last Quarter
Jun 8
New

Hourly Weather History & Observations

Time (PDT) Temp. Dew Point Humidity Pressure Visibility Wind Dir Wind Speed Gust Speed Precip Events Conditions
12:56 AM 66.0 °F 39.9 °F 38% 29.96 in 10.0 mi SSW 9.2 mph - N/A   Partly Cloudy
1:56 AM 66.0 °F 43.0 °F 43% 29.96 in 10.0 mi WSW 3.5 mph - N/A   Partly Cloudy
2:56 AM 64.9 °F 42.1 °F 43% 29.96 in 10.0 mi South 10.4 mph - N/A   Clear
3:56 AM 63.0 °F 41.0 °F 45% 29.96 in 10.0 mi SSW 6.9 mph - N/A   Clear
4:56 AM 62.1 °F 41.0 °F 46% 29.96 in 10.0 mi SSW 8.1 mph - N/A   Clear
5:56 AM 62.1 °F 39.9 °F 44% 29.97 in 10.0 mi SSW 10.4 mph - N/A   Clear
6:56 AM 64.0 °F 41.0 °F 43% 30.00 in 10.0 mi SSW 6.9 mph - N/A   Partly Cloudy
7:56 AM 69.1 °F 43.0 °F 39% 30.02 in 10.0 mi South 6.9 mph - N/A   Scattered Clouds
8:56 AM 73.9 °F 43.0 °F 33% 30.02 in 10.0 mi NW 8.1 mph - N/A   Scattered Clouds
9:56 AM 77.0 °F 42.1 °F 29% 30.02 in 10.0 mi NE 5.8 mph - N/A   Partly Cloudy
10:56 AM 79.0 °F 41.0 °F 26% 30.01 in 10.0 mi SE 6.9 mph - N/A   Partly Cloudy
11:56 AM 82.0 °F 39.9 °F 22% 30.00 in 10.0 mi East 6.9 mph - N/A   Partly Cloudy
12:56 PM 84.0 °F 37.9 °F 19% 29.98 in 10.0 mi Calm Calm - N/A   Scattered Clouds
1:56 PM 87.1 °F 35.1 °F 16% 29.96 in 10.0 mi Variable 4.6 mph - N/A   Scattered Clouds
2:56 PM 87.1 °F 30.9 °F 13% 29.94 in 10.0 mi Variable 4.6 mph 20.7 mph N/A   Mostly Cloudy
3:11 PM 87.8 °F 30.2 °F 13% 29.99 in 10.0 mi North 6.9 mph - N/A   Mostly Cloudy
3:56 PM 88.0 °F 28.0 °F 12% 29.92 in 10.0 mi NE 13.8 mph 19.6 mph N/A   Mostly Cloudy
4:56 PM 87.1 °F 27.0 °F 11% 29.92 in 10.0 mi Calm Calm - N/A   Mostly Cloudy
5:56 PM 88.0 °F 30.0 °F 12% 29.92 in 10.0 mi East 9.2 mph - N/A   Mostly Cloudy
6:56 PM 87.1 °F 34.0 °F 15% 29.93 in 10.0 mi East 18.4 mph 24.2 mph N/A   Mostly Cloudy
7:56 PM 84.0 °F 35.1 °F 17% 29.95 in 10.0 mi East 5.8 mph - N/A   Mostly Cloudy
8:56 PM 82.0 °F 35.1 °F 18% 29.96 in 10.0 mi East 3.5 mph - N/A   Mostly Cloudy
9:56 PM 80.1 °F 36.0 °F 20% 29.98 in 10.0 mi South 6.9 mph - N/A   Scattered Clouds
10:56 PM 78.1 °F 36.0 °F 22% 29.99 in 10.0 mi SSW 6.9 mph - N/A   Scattered Clouds
11:56 PM 77.0 °F 36.0 °F 23% 30.00 in 10.0 mi Calm Calm - N/A   Scattered Clouds